Regional Weather Roundup
Issued by NWS Green Bay, WI

Home | Current Version | Previous Version | Text Only | Print | Product List | Glossary On
Versions: 1 2 3 4 5 6 7 8 9 10 11 12 13 14 15 16 17 18 19 20 21 22 23 24 25 26 27 28 29 30 31 32 33 34 35 36 37 38 39 40 41 42 43 44 45 46 47 48 49 50
000
ASUS43 KGRB 211410
RWRGRB

NORTH-CENTRAL AND NORTHEAST WISCONSIN REGIONAL WEATHER ROUNDUP
NATIONAL WEATHER SERVICE GREEN BAY WI
800 AM CST SUN DEC 21 2014

WIZ005-009-010>012-018-019-211500-
NORTH CENTRAL WISCONSIN

CITY           SKY/WX    TMP DP  RH WIND       PRES   REMARKS
IRONWOOD       CLOUDY    30  27  86 S6G16     29.94F
MANITOWISH WTR CLOUDY    27  27 100 S8        29.98F FOG
ARBOR VITAE    CLOUDY    29  28  93 SE9       29.99F FOG
EAGLE RIVER    FOG       27  27 100 S5        30.01F VSB 1
LAND O LAKES   CLOUDY    28  27  99 S7        30.01F FOG
RHINELANDER    CLOUDY    27  26  96 SE8       30.02F FOG
PHILLIPS       CLOUDY    29  27  91 SE8       29.98S
ANTIGO         FOG       26  26 100 SE10      30.04F VSB 1/2
TOMAHAWK       CLOUDY    28  26  94 CALM      30.01F FOG
MERRILL        CLOUDY    29  28  98 SE7       30.03F FOG
$$

WIZ013-073-211500-
NORTHEAST WISCONSIN

CITY           SKY/WX    TMP DP  RH WIND       PRES   REMARKS
IRON MOUNTAIN  CLOUDY    27  24  89 S8        30.07F FOG
MARINETTE      CLOUDY    30  27  86 S6        30.13F
OCONTO         CLOUDY    30  28  92 SE5       30.13F
$$

WIZ017-030-035>037-045-211500-
CENTRAL WISCONSIN

CITY           SKY/WX    TMP DP  RH WIND       PRES   REMARKS
MEDFORD        CLOUDY    28  27  96 SE9G16    30.00F FOG
WAUSAU         CLOUDY    29  27  92 SE8       30.03F FOG
MOSINEE        CLOUDY    28  28 100 SE8       30.05F FOG
MARSHFIELD     CLOUDY    30  28  92 S10       30.02F FOG
WISC RAPIDS    CLOUDY    30  27  88 SE9       30.06F FOG
STEVENS POINT  CLOUDY    28  27  96 SE7       30.06F FOG
WAUPACA        CLOUDY    32  29  90 SE6       30.10F FOG
SHAWANO        CLOUDY    32  28  86 S3        30.11F FOG
CLINTONVILLE   CLOUDY    32  28  86 S7        30.11S FOG
$$

WIZ038-039-048-051-211500-
FOX VALLEY

CITY           SKY/WX    TMP DP  RH WIND       PRES   REMARKS
NWS GREEN BAY  CLOUDY    31  28  89 SE7       30.13F FOG
APPLETON       CLOUDY    30  30 100 S9        30.12F FOG
OSHKOSH        CLOUDY    32  28  85 S9        30.12F FOG
FOND DU LAC    CLOUDY    32  28  85 S10       30.12F FOG
$$

WIZ022-050-052-211500-
EAST CENTRAL WISCONSIN

CITY           SKY/WX    TMP DP  RH WIND       PRES   REMARKS
STURGEON BAY   CLOUDY    30  25  80 S10       30.16S
MANITOWOC      CLOUDY    33  30  88 S12       30.15F FOG
SHEBOYGAN      CLOUDY    32  28  85 S7        30.15F FOG
$$

LMZ563-521-522-541>543-211500-
LAKESHORE

STATION/POSITION TIME  TEMP    WIND        PRES    VSBY  WAVE
                       AIR SEA DIR/SP/G                  HT/PER
                 (UTC) (F)     (DEG/KT/KT) (MB)    (MI)  (FT/S)
SHEBOYGAN LKSHOR 1400   35 34  180/ 15/ 17 1022.0F
KEWAUNEE LKSHORE 1400   33     190/  8/ 10 1020.3F
ALGOMA MARINA    1300          230/ 11/ 11   N/A
TWO RIVERS CG    1300   33                 1021.6
NORTHPORT PIER   1400   31     180/  2/  4 1021.0F
SISTER BAY LKSHO 1400          170/  7/  9   N/A
STURGEON BAY CG  1300   33     180/  5     1022.6      6   1
CHAMBERS ISLAND  1400   32     140/  3/  6 1021.0F
MENOMINEE LKSHOR 1400   31     160/  9/ 13 1021.1F
$$



USA.gov is the U.S. government's official web portal to all federal, state and local government web resources and services.